Terug naar catalogus

STARLINK-31764

ActiefCommunicatieVLEO
NORAD 59653·PAYLOAD·🇺🇸 United States

Gelanceerd May 3, 2024 vanaf Cape Canaveral Space Force Station

Loading…

Volgende Passages (komende 24 uur)

TLE

VersSource: CelesTrak SupGP

Epoch: Sep 15, 2026, 03:36 UTC

1 59653C 24082Y   26258.15048611  .00065026  00000+0  23553-2 0  2589
2 59653  43.0004 149.6524 0001409 276.2318 298.3251 15.27544909    12

Volg STARLINK-31764 in realtime met AllMySat

Download on the App Store